This is the latest recevied weather packets stored in our database for station/object IW9DKU-3. If no packets are shown the sender has not sent any weather packets the latest 1 day(s).
| Time | Temp. | Humidity | Pressure | Rain* | Wind** | Luminosity | Snow |
|---|---|---|---|---|---|---|---|
| 1788574583 | 28.33° C | 44% | 1028.3 hPa | - | - | - | - |
| 1788573380 | 28.33° C | 44% | 1028.2 hPa | - | - | - | - |
| 1788572176 | 28.33° C | 43% | 1028.2 hPa | - | - | - | - |
| 1788570973 | 28.33° C | 43% | 1028.2 hPa | - | - | - | - |
| 1788569769 | 28.33° C | 44% | 1028.3 hPa | - | - | - | - |
| 1788568566 | 28.33° C | 43% | 1028.3 hPa | - | - | - | - |
| 1788567362 | 28.33° C | 44% | 1028.4 hPa | - | - | - | - |
| 1788566159 | 28.33° C | 44% | 1028.6 hPa | - | - | - | - |
| 1788564955 | 28.33° C | 44% | 1028.6 hPa | - | - | - | - |
| 1788563752 | 28.33° C | 44% | 1028.7 hPa | - | - | - | - |
| 1788562548 | 28.33° C | 44% | 1029 hPa | - | - | - | - |
| 1788561345 | 28.33° C | 44% | 1029.1 hPa | - | - | - | - |
| 1788560142 | 28.33° C | 43% | 1029.1 hPa | - | - | - | - |
| 1788558938 | 28.89° C | 43% | 1029.1 hPa | - | - | - | - |
| 1788557734 | 28.89° C | 42% | 1029 hPa | - | - | - | - |
| 1788556531 | 28.89° C | 42% | 1029.1 hPa | - | - | - | - |
| 1788555328 | 28.89° C | 42% | 1029.2 hPa | - | - | - | - |
| 1788554124 | 28.89° C | 40% | 1029.2 hPa | - | - | - | - |
| 1788552920 | 28.89° C | 42% | 1029.1 hPa | - | - | - | - |
| 1788551716 | 28.89° C | 45% | 1029.3 hPa | - | - | - | - |
* Rain since midnight (hover to see other rain measurements)
** Current wind speed in m/s (hover to see current wind gust speed)